sat.trackr.live / text

‹ back to catalog

KL-ALPHA B

NORAD 44786 · 2019-077B

PAYLOAD ACTIVE UNKNOWN

§ Identity

Operator
Country
GER
Launch date
2019-11-17
Launch site
JSC
Launch vehicle
Mass (kg)
RCS (m²)

External: N2YO · Heavens-Above · Gunter

§ Orbital elements

Epoch: 2026-05-25T04:18:11.668608Z

Period
106.19 min
Inclination
88.9122°
Eccentricity
0.0025210
Mean motion
13.56000251 rev/d
Perigee alt
1,031.5 km
Apogee alt
1,069.0 km
Semi-major
7,428.4 km
B*
2.9151e-4
RAAN
222.7001°
Arg perigee
213.0891°
Mean anomaly
146.8687°
Rev number
32,206

§ Raw data

KL-ALPHA B1 44786U 19077B   26145.17930172  .00000216  00000+0  29151-3 0  99902 44786  88.9122 222.7001 0025210 213.0891 146.8687 13.56000251322065

JSON: /api/v1/satellites/44786 · /tle

For live sub-satellite position, see the globe view (requires WebGL).

§ Visibility from observer

Set your observer location to see the next 7 days of passes ≥ 10°. The values pass through the URL so the page stays shareable.

No JS? Fill the form by hand. The geolocation button needs JavaScript.